Stations météo

réclame
Mon MeteoGroup
A12-CPP, Pays-Bas (6205): Température de l'air & dewpoint: 29.03.2020 06:00:00 - 04.04.2020 06:00:00 (CEST)A12-CPP, Pays-Bas (6205): Vitesse du vent & gusts: 29.03.2020 06:00:00 - 04.04.2020 06:00:00 (CEST)A12-CPP, Pays-Bas (6205): Direction du vent: 29.03.2020 06:00:00 - 04.04.2020 06:00:00 (CEST)A12-CPP, Pays-Bas (6205): reduced air pressure: 29.03.2020 06:00:00 - 04.04.2020 06:00:00 (CEST)A12-CPP, Pays-Bas (6205): visibility: 29.03.2020 06:00:00 - 04.04.2020 06:00:00 (CEST)
Date & Time tt [°C] td [°C] ff [km/h] ff [knt] fx [km/h] fx [knt] dd ppp [hPa] vv [km]
04.04.2020 06:00:00 6,8 5,1 18 10 18 10 S 1017,1 10
04.04.2020 05:00:00 6,0 3,6 8 4 11 6 S 1017,0 10
04.04.2020 04:00:00 5,7 2,7 8 4 11 6 WSW 1017,2 10
04.04.2020 03:00:00 5,7 2,3 15 8 29 16 W 1017,3 10
04.04.2020 02:00:00 6,2 3,8 24 13 22 12 W 1017,0 10
04.04.2020 01:00:00 6,3 2,8 13 7 14 8 SW 1016,8 10
04.04.2020 00:00:00 6,1 2,1 13 7 18 10 W 1016,6 10
03.04.2020 23:00:00 5,9 1,3 21 11 22 12 W 1016,3 10
03.04.2020 22:00:00 5,1 2,1 18 10 22 12 W 1016,1 10
03.04.2020 21:00:00 3,9 2,3 35 19 47 25 NW 1015,7 5
03.04.2020 20:00:00 6,3 0,9 29 16 29 16 W 1015,1 10
03.04.2020 19:00:00 6,0 0,8 29 16 32 18 W 1015,1 10
03.04.2020 18:00:00 5,9 -0,9 37 20 43 23 W 1014,8 10
03.04.2020 17:00:00 5,9 -0,2 35 19 36 19 WNW 1014,3 10
03.04.2020 16:00:00 5,8 -0,7 32 18 43 23 WNW 1014,1 43
03.04.2020 15:00:00 5,4 -0,5 34 18 40 21 W 1013,9 10
03.04.2020 14:00:00 5,6 -1,2 24 13 32 18 WNW 1013,5 10
03.04.2020 13:00:00 4,4 0,7 31 17 40 21 NNW 1013,1 10
03.04.2020 12:00:00 5,1 0,4 26 14 36 19 W 1012,7 10
03.04.2020 11:00:00 5,3 -0,8 34 18 36 19 WNW 1012,0 10
03.04.2020 10:00:00 3,7 0,8 39 21 47 25 NW 1011,3 10
03.04.2020 09:00:00 5,0 0,4 41 22 50 27 NNW 1010,4 10
03.04.2020 08:00:00 5,2 1,5 39 21 40 21 NW 1010,2 10
03.04.2020 07:00:00 3,4 0,3 57 31 58 31 NNW 1009,8 10
03.04.2020 06:00:00 4,5 1,7 46 25 50 27 NNW 1009,2 10
03.04.2020 05:00:00 5,3 0,7 48 26 58 31 NW 1008,5 10
03.04.2020 04:00:00 5,7 0,0 61 33 61 33 NW 1008,1 10
03.04.2020 03:00:00 5,6 0,6 50 27 61 33 NW 1007,9 10
03.04.2020 02:00:00 5,6 0,5 55 30 58 31 NW 1007,4 -
03.04.2020 01:00:00 5,8 -0,5 59 32 58 31 NW 1007,3 -
03.04.2020 00:00:00 5,7 -1,9 59 32 61 33 NNW 1006,7 -
02.04.2020 23:00:00 5,9 -1,9 61 33 65 35 NNW 1006,6 -
02.04.2020 22:00:00 5,7 -2,2 65 35 65 35 NNW 1006,2 -
02.04.2020 21:00:00 5,8 -1,3 67 36 65 35 NNW 1005,6 10
02.04.2020 20:00:00 5,9 -1,5 63 34 68 37 NNW 1005,1 10
02.04.2020 19:00:00 5,9 -2,4 63 34 68 37 NNW 1004,7 10
02.04.2020 18:00:00 6,5 -0,1 59 32 61 33 NNW 1004,3 10
02.04.2020 17:00:00 6,6 1,6 50 27 65 35 NNW 1004,0 10
02.04.2020 16:00:00 6,6 3,3 50 27 76 41 NW 1003,7 7
02.04.2020 15:00:00 8,1 5,8 59 32 65 35 W 1003,3 10
02.04.2020 14:00:00 7,8 5,3 61 33 65 35 WSW 1003,5 10
02.04.2020 13:00:00 7,8 4,6 61 33 72 39 WSW 1003,4 10
02.04.2020 12:00:00 7,3 4,4 55 30 61 33 WSW 1004,4 10
02.04.2020 11:00:00 7,1 4,0 59 32 58 31 WSW 1004,7 10
02.04.2020 10:00:00 7,1 5,0 54 29 58 31 W 1005,8 10
02.04.2020 09:00:00 7,1 5,9 48 26 50 27 WSW 1006,6 10
02.04.2020 08:00:00 7,0 6,1 48 26 47 25 WSW 1007,4 10
02.04.2020 07:00:00 7,0 6,0 40 21 47 25 WSW 1008,0 20
02.04.2020 06:00:00 7,1 6,1 41 22 40 21 WSW 1008,9 10
02.04.2020 05:00:00 7,1 6,0 32 18 36 19 WSW 1009,8 25
02.04.2020 04:00:00 7,2 5,8 28 15 29 16 W 1010,7 10
02.04.2020 03:00:00 7,2 5,4 31 17 40 21 W 1011,7 10
02.04.2020 02:00:00 7,2 5,1 41 22 43 23 W 1012,5 10
02.04.2020 01:00:00 7,2 4,5 41 22 40 21 W 1013,1 10
02.04.2020 00:00:00 7,0 4,4 39 21 40 21 WSW 1013,9 10
01.04.2020 23:00:00 6,9 4,1 39 21 40 21 WSW 1014,5 10
01.04.2020 22:00:00 6,8 4,2 35 19 36 19 W 1014,8 10
01.04.2020 21:00:00 6,7 4,1 35 19 36 19 W 1015,1 10
01.04.2020 20:00:00 6,7 3,9 34 18 32 18 W 1015,3 10
01.04.2020 19:00:00 6,7 3,4 34 18 36 19 WNW 1015,8 10
01.04.2020 18:00:00 6,8 2,9 29 16 40 21 WNW 1016,3 39
01.04.2020 17:00:00 7,0 2,0 35 19 36 19 WNW 1016,7 10
01.04.2020 16:00:00 6,8 4,3 25 14 32 18 WNW 1017,5 40
01.04.2020 15:00:00 6,7 4,4 31 17 32 18 W 1018,0 10
01.04.2020 14:00:00 6,7 4,2 31 17 32 18 WNW 1018,6 10
01.04.2020 13:00:00 6,7 4,8 29 16 36 19 WNW 1019,1 10
01.04.2020 12:00:00 6,7 5,3 31 17 32 18 WNW 1019,7 10
01.04.2020 11:00:00 6,7 5,3 24 13 29 16 WNW 1020,2 10
01.04.2020 10:00:00 6,8 5,2 28 15 29 16 NW 1020,3 10
01.04.2020 09:00:00 6,8 5,3 28 15 29 16 NW 1020,5 10
01.04.2020 08:00:00 6,8 5,4 31 17 32 18 NW 1021,0 10
01.04.2020 07:00:00 6,8 5,2 34 18 36 19 WNW 1021,2 10
01.04.2020 06:00:00 6,7 4,8 37 20 36 19 NW 1021,8 10
01.04.2020 05:00:00 6,8 5,0 37 20 36 19 WNW 1022,4 10
01.04.2020 04:00:00 6,8 4,7 35 19 36 19 NW 1023,1 10
01.04.2020 03:00:00 6,6 4,6 37 20 40 21 NW 1023,9 10
01.04.2020 02:00:00 6,7 4,5 34 18 36 19 NW 1024,5 10
01.04.2020 01:00:00 6,6 4,5 35 19 36 19 NW 1025,4 10
01.04.2020 00:00:00 6,6 4,4 37 20 36 19 NW 1026,1 10
31.03.2020 23:00:00 6,4 4,4 29 16 32 18 NW 1027,0 10
31.03.2020 22:00:00 6,3 4,1 31 17 32 18 NW 1027,5 10
31.03.2020 21:00:00 6,0 3,6 22 12 40 21 NW 1028,1 48
31.03.2020 20:00:00 6,3 3,5 24 13 40 21 WNW 1028,4 10
31.03.2020 19:00:00 6,4 4,1 24 13 36 19 W 1029,1 10
31.03.2020 18:00:00 6,3 3,4 25 14 32 18 NW 1029,7 44
31.03.2020 17:00:00 6,5 3,1 29 16 29 16 NW 1030,3 10
31.03.2020 16:00:00 6,4 3,9 28 15 29 16 NW 1031,3 10
31.03.2020 15:00:00 6,1 3,8 24 13 25 14 WNW 1032,0 10
31.03.2020 14:00:00 6,0 3,5 18 10 18 10 W 1032,7 10
31.03.2020 13:00:00 5,9 2,6 15 8 14 8 WNW 1033,0 10
31.03.2020 12:00:00 5,6 1,6 13 7 18 10 NW 1033,5 10
31.03.2020 11:00:00 5,6 0,6 21 11 22 12 NNW 1033,8 10
31.03.2020 10:00:00 5,7 -0,6 16 9 22 12 NNW 1034,0 10
31.03.2020 09:00:00 5,6 -1,1 9 5 14 8 NW 1034,2 10
31.03.2020 08:00:00 5,1 0,5 8 4 18 10 WSW 1034,2 10
31.03.2020 07:00:00 4,8 0,5 15 8 22 12 - 1034,3 10
31.03.2020 06:00:00 5,3 -0,5 4 2 11 6 - 1034,1 10
31.03.2020 05:00:00 5,3 -0,3 7 4 11 6 E 1034,0 50
31.03.2020 04:00:00 5,5 0,1 11 6 18 10 ENE 1034,1 10
31.03.2020 03:00:00 5,6 0,7 15 8 22 12 ENE 1033,9 10
31.03.2020 02:00:00 5,6 0,7 22 12 25 14 ENE 1033,7 10
31.03.2020 01:00:00 5,7 0,8 28 15 29 16 ENE 1033,6 10
31.03.2020 00:00:00 5,8 0,8 28 15 25 14 ENE 1033,4 10
30.03.2020 23:00:00 5,8 1,2 24 13 25 14 ENE 1033,0 10
30.03.2020 22:00:00 6,0 2,6 34 18 40 21 NNE 1032,5 10
30.03.2020 21:00:00 6,0 1,7 37 20 43 23 NNE 1031,8 10
30.03.2020 20:00:00 6,0 1,1 44 24 47 25 NNE 1031,3 10
30.03.2020 19:00:00 6,1 1,2 42 23 47 25 NNE 1030,8 10
30.03.2020 18:00:00 6,0 2,2 37 20 47 25 NNE 1030,5 10
30.03.2020 17:00:00 6,1 2,1 48 26 50 27 NNE 1030,5 10
30.03.2020 16:00:00 6,2 1,9 36 19 47 25 NNE 1030,2 31
30.03.2020 15:00:00 6,3 2,0 37 20 47 25 NNE 1030,0 10
30.03.2020 14:00:00 6,1 3,2 41 22 50 27 N 1030,2 10
30.03.2020 13:00:00 6,1 3,2 44 24 50 27 N 1030,0 10
30.03.2020 12:00:00 6,4 3,5 40 21 47 25 N 1030,4 34
30.03.2020 11:00:00 6,4 3,8 52 28 50 27 N 1030,6 10
30.03.2020 10:00:00 6,7 3,6 48 26 50 27 N 1030,8 10
30.03.2020 09:00:00 6,5 3,8 42 23 43 23 N 1031,2 10
30.03.2020 08:00:00 6,4 3,5 42 23 43 23 N 1031,6 10
30.03.2020 07:00:00 6,4 2,5 29 16 40 21 N 1031,8 27
30.03.2020 06:00:00 6,2 2,6 41 22 40 21 N 1032,3 10
30.03.2020 05:00:00 6,1 0,8 39 21 43 23 N 1032,7 10
30.03.2020 04:00:00 6,2 2,4 34 18 43 23 N 1033,3 10
30.03.2020 03:00:00 6,1 2,8 35 19 43 23 N 1033,7 10
30.03.2020 02:00:00 6,1 3,1 37 20 43 23 N 1034,5 10
30.03.2020 01:00:00 5,9 3,2 42 23 47 25 NNW 1034,9 10
30.03.2020 00:00:00 4,7 1,7 39 21 50 27 NNW 1036,1 10
29.03.2020 23:00:00 5,3 0,5 37 20 54 29 NNW 1037,1 10
29.03.2020 22:00:00 4,9 -1,3 42 23 43 23 N 1037,9 10
29.03.2020 21:00:00 4,9 -1,9 41 22 43 23 N 1038,3 10
29.03.2020 20:00:00 4,4 -1,5 44 24 47 25 N 1038,9 10
29.03.2020 19:00:00 4,8 -3,4 37 20 40 21 N 1039,2 10
29.03.2020 18:00:00 4,7 -4,8 31 17 47 25 NNE 1039,8 10
29.03.2020 17:00:00 4,5 -4,0 41 22 47 25 NNE 1039,9 10
29.03.2020 16:00:00 4,5 -3,9 42 23 50 27 NNE 1040,2 10
29.03.2020 15:00:00 4,5 -4,4 32 18 47 25 NE 1040,3 49
29.03.2020 14:00:00 4,4 -5,1 41 22 47 25 NNE 1040,5 10
29.03.2020 13:00:00 4,0 -5,7 44 24 54 29 NE 1040,3 10
29.03.2020 12:00:00 4,1 -6,4 46 25 54 29 NE 1040,2 10
29.03.2020 11:00:00 4,2 -6,9 55 30 58 31 NNE 1039,7 10
29.03.2020 10:00:00 4,4 -5,4 50 27 54 29 NE 1039,1 10
29.03.2020 09:00:00 4,4 -5,1 59 32 65 35 NNE 1038,3 10
29.03.2020 08:00:00 4,5 -3,7 61 33 65 35 NNE 1036,9 10
29.03.2020 07:00:00 5,0 -3,0 59 32 65 35 NNE 1036,3 10
29.03.2020 06:00:00 5,1 -1,5 50 27 76 41 NNE 1035,7 32

tt = Température de l'air
td = dewpoint
ff = Vitesse du vent
fx = gusts
dd = Direction du vent
ppp = reduced air pressure
vv = visibility

stations d'obs. à proximité